| time (UTC) | temp F | wind direction | speed MPH | gust MPH | rain 1hr in | rain 24hr in | rain mn in | humidity % | barometer mb |
| 20260504205347 | 66 | 201 | 5.0 | 7.0 | 0.00 | 0.00 | 0.00 | 43 | 1012.1 |
| 20260504204845 | 65 | 295 | 3.0 | 6.0 | 0.00 | 0.00 | 0.00 | 44 | 1012.0 |
| 20260504204343 | 65 | 283 | 7.0 | 16.0 | 0.00 | 0.00 | 0.00 | 44 | 1011.9 |
| 20260504203842 | 65 | 228 | 5.0 | 9.0 | 0.00 | 0.00 | 0.00 | 43 | 1011.8 |
| 20260504203339 | 66 | 220 | 6.0 | 10.0 | 0.00 | 0.00 | 0.00 | 43 | 1012.0 |
| 20260504202834 | 66 | 115 | 2.0 | 10.0 | 0.00 | 0.00 | 0.00 | 43 | 1012.1 |
| 20260504202332 | 66 | 302 | 4.0 | 7.0 | 0.00 | 0.00 | 0.00 | 42 | 1012.0 |
| 20260504201828 | 67 | 263 | 5.0 | 8.0 | 0.00 | 0.00 | 0.00 | 43 | 1012.0 |
| 20260504201326 | 68 | 230 | 5.0 | 7.0 | 0.00 | 0.00 | 0.00 | 42 | 1011.8 |
| 20260504200823 | 67 | 288 | 4.0 | 7.0 | 0.00 | 0.00 | 0.00 | 42 | 1012.1 |
| 20260504200320 | 68 | 265 | 5.0 | 7.0 | 0.00 | 0.00 | 0.00 | 41 | 1012.1 |
| 20260504195816 | 67 | 279 | 3.0 | 5.0 | 0.00 | 0.00 | 0.00 | 41 | 1012.0 |
| 20260504195312 | 67 | 296 | 5.0 | 10.0 | 0.00 | 0.00 | 0.00 | 40 | 1012.0 |
| 20260504194809 | 67 | 183 | 2.0 | 6.0 | 0.00 | 0.00 | 0.00 | 41 | 1012.1 |
| 20260504194305 | 67 | 291 | 4.0 | 6.0 | 0.00 | 0.00 | 0.00 | 40 | 1012.0 |
| 20260504193801 | 67 | 186 | 5.0 | 7.0 | 0.00 | 0.00 | 0.00 | 40 | 1012.2 |
| 20260504193259 | 67 | 302 | 3.0 | 9.0 | 0.00 | 0.00 | 0.00 | 39 | 1012.3 |
| 20260504192757 | 68 | 198 | 4.0 | 11.0 | 0.00 | 0.00 | 0.00 | 41 | 1012.4 |
| 20260504192254 | 68 | 237 | 1.0 | 5.0 | 0.00 | 0.00 | 0.00 | 41 | 1012.0 |
| 20260504191753 | 68 | 208 | 3.0 | 7.0 | 0.00 | 0.00 | 0.00 | 38 | 1012.1 |
| 20260504191250 | 68 | 320 | 7.0 | 11.0 | 0.00 | 0.00 | 0.00 | 37 | 1012.0 |
| 20260504190745 | 68 | 329 | 2.0 | 7.0 | 0.00 | 0.00 | 0.00 | 38 | 1012.0 |
| 20260504190242 | 67 | 283 | 7.0 | 9.0 | 0.00 | 0.00 | 0.00 | 37 | 1011.9 |
| 20260504185738 | 67 | 205 | 8.0 | 9.0 | 0.00 | 0.00 | 0.00 | 35 | 1012.2 |
| 20260504185235 | 68 | 291 | 2.0 | 6.0 | 0.00 | 0.00 | 0.00 | 40 | 1012.0 |
| 20260504184731 | 68 | 131 | 3.0 | 6.0 | 0.00 | 0.00 | 0.00 | 37 | 1012.2 |
| 20260504184227 | 68 | 287 | 4.0 | 8.0 | 0.00 | 0.00 | 0.00 | 35 | 1012.3 |
| 20260504183723 | 68 | 288 | 4.0 | 6.0 | 0.00 | 0.00 | 0.00 | 35 | 1012.3 |
| 20260504183220 | 67 | 310 | 2.0 | 10.0 | 0.00 | 0.00 | 0.00 | 38 | 1012.1 |
| 20260504182719 | 67 | 298 | 7.0 | 11.0 | 0.00 | 0.00 | 0.00 | 36 | 1012.4 |
| 20260504182215 | 68 | 207 | 5.0 | 7.0 | 0.00 | 0.00 | 0.00 | 36 | 1012.4 |
| 20260504181713 | 68 | 240 | 1.0 | 15.0 | 0.00 | 0.00 | 0.00 | 36 | 1012.3 |
| 20260504181210 | 68 | 208 | 2.0 | 10.0 | 0.00 | 0.00 | 0.00 | 34 | 1012.6 |
| 20260504180709 | 68 | 302 | 6.0 | 7.0 | 0.00 | 0.00 | 0.00 | 35 | 1012.5 |
| 20260504180207 | 68 | 240 | 3.0 | 8.0 | 0.00 | 0.00 | 0.00 | 35 | 1012.7 |
| 20260504175704 | 67 | 245 | 7.0 | 9.0 | 0.00 | 0.00 | 0.00 | 35 | 1012.9 |
| 20260504175201 | 67 | 207 | 3.0 | 8.0 | 0.00 | 0.00 | 0.00 | 36 | 1012.9 |
| 20260504174659 | 67 | 313 | 2.0 | 9.0 | 0.00 | 0.00 | 0.00 | 35 | 1012.8 |
| 20260504174156 | 66 | 245 | 2.0 | 10.0 | 0.00 | 0.00 | 0.00 | 36 | 1013.1 |
| 20260504173653 | 66 | 305 | 2.0 | 9.0 | 0.00 | 0.00 | 0.00 | 38 | 1013.0 |
| 20260504173150 | 67 | 231 | 6.0 | 9.0 | 0.00 | 0.00 | 0.00 | 35 | 1013.1 |
| 20260504172646 | 66 | 301 | 5.0 | 7.0 | 0.00 | 0.00 | 0.00 | 35 | 1012.8 |
| 20260504172143 | 66 | 253 | 5.0 | 10.0 | 0.00 | 0.00 | 0.00 | 35 | 1013.1 |
| 20260504171639 | 66 | 196 | 7.0 | 10.0 | 0.00 | 0.00 | 0.00 | 33 | 1012.9 |
| 20260504171137 | 66 | 14 | 9.0 | 11.0 | 0.00 | 0.00 | 0.00 | 33 | 1012.9 |
| 20260504170633 | 66 | 185 | 3.0 | 8.0 | 0.00 | 0.00 | 0.00 | 35 | 1012.6 |
| 20260504170131 | 67 | 299 | 5.0 | 8.0 | 0.00 | 0.00 | 0.00 | 33 | 1012.8 |
| 20260504151010 | 63 | 220 | 3.0 | 7.0 | 0.00 | 0.00 | 0.00 | 36 | 1013.9 |
| 20260504150508 | 63 | 38 | 3.0 | 5.0 | 0.00 | 0.00 | 0.00 | 40 | 1014.1 |
| 20260504140933 | 61 | 310 | 2.0 | 7.0 | 0.00 | 0.00 | 0.00 | 39 | 1014.5 |
| 20260504140429 | 61 | 310 | 3.0 | 8.0 | 0.00 | 0.00 | 0.00 | 38 | 1014.5 |
| 20260504130354 | 57 | 236 | 3.0 | 6.0 | 0.00 | 0.00 | 0.00 | 44 | 1015.0 |
| 20260504120317 | 51 | 205 | 3.0 | 3.0 | 0.00 | 0.00 | 0.00 | 53 | 1015.2 |
| 20260504110241 | 46 | 294 | 0.0 | 1.0 | 0.00 | 0.00 | 0.00 | 63 | 1015.1 |
| 20260504100200 | 43 | 345 | 0.0 | 0.0 | 0.00 | 0.00 | 0.00 | 67 | 1014.7 |
| 20260504090122 | 45 | 316 | 0.0 | 0.0 | 0.00 | 0.00 | 0.00 | 60 | 1014.4 |
| 20260504081552 | 45 | 312 | 0.0 | 1.0 | 0.00 | 0.00 | 0.00 | 60 | 1014.0 |
| 20260504081048 | 45 | 313 | 0.0 | 1.0 | 0.00 | 0.00 | 0.00 | 60 | 1014.1 |
| 20260504080545 | 46 | 305 | 0.0 | 1.0 | 0.00 | 0.00 | 0.00 | 58 | 1014.1 |
| 20260504050358 | 43 | 5 | 0.0 | 0.0 | 0.00 | 0.00 | 0.00 | 55 | 1014.0 |
| 20260504045855 | 43 | 5 | 0.0 | 0.0 | 0.00 | 0.00 | 0.00 | 54 | 1014.1 |
| 20260504045350 | 43 | 5 | 0.0 | 0.0 | 0.00 | 0.00 | 0.00 | 53 | 1014.1 |
| 20260504044847 | 43 | 5 | 0.0 | 0.0 | 0.00 | 0.00 | 0.00 | 53 | 1014.0 |
| 20260504044344 | 43 | 5 | 0.0 | 0.0 | 0.00 | 0.00 | 0.00 | 52 | 1014.1 |
| 20260504043842 | 43 | 5 | 0.0 | 0.0 | 0.00 | 0.00 | 0.00 | 52 | 1014.0 |
| 20260504043339 | 43 | 5 | 0.0 | 0.0 | 0.00 | 0.00 | 0.00 | 52 | 1014.0 |
| 20260504042836 | 43 | 5 | 0.0 | 0.0 | 0.00 | 0.00 | 0.00 | 52 | 1014.0 |
| 20260504042332 | 43 | 5 | 0.0 | 0.0 | 0.00 | 0.00 | 0.00 | 54 | 1014.2 |
| 20260504041828 | 43 | 4 | 0.0 | 0.0 | 0.00 | 0.00 | 0.00 | 51 | 1014.1 |
| 20260504041325 | 43 | 4 | 0.0 | 0.0 | 0.00 | 0.00 | 0.00 | 52 | 1014.2 |
| 20260504040821 | 43 | 4 | 0.0 | 0.0 | 0.00 | 0.00 | 0.00 | 52 | 1014.1 |
| 20260504040319 | 43 | 4 | 0.0 | 0.0 | 0.00 | 0.00 | 0.00 | 51 | 1013.8 |
| 20260504035815 | 44 | 4 | 0.0 | 0.0 | 0.00 | 0.00 | 0.00 | 50 | 1013.9 |
| 20260504035312 | 43 | 5 | 0.0 | 0.0 | 0.00 | 0.00 | 0.00 | 50 | 1013.6 |
| 20260504034809 | 43 | 4 | 0.0 | 0.0 | 0.00 | 0.00 | 0.00 | 51 | 1013.8 |
| 20260504034307 | 43 | 4 | 0.0 | 0.0 | 0.00 | 0.00 | 0.00 | 53 | 1013.8 |
| 20260504033804 | 43 | 5 | 0.0 | 0.0 | 0.00 | 0.00 | 0.00 | 52 | 1013.8 |
| 20260504033302 | 44 | 5 | 0.0 | 0.0 | 0.00 | 0.00 | 0.00 | 55 | 1013.9 |
| 20260504032758 | 44 | 5 | 0.0 | 0.0 | 0.00 | 0.00 | 0.00 | 52 | 1014.0 |
| 20260504032255 | 44 | 5 | 0.0 | 0.0 | 0.00 | 0.00 | 0.00 | 52 | 1013.7 |
| 20260504031752 | 44 | 5 | 0.0 | 0.0 | 0.00 | 0.00 | 0.00 | 52 | 1013.8 |
| 20260504031249 | 44 | 5 | 0.0 | 0.0 | 0.00 | 0.00 | 0.00 | 53 | 1014.0 |
| 20260504030745 | 44 | 5 | 0.0 | 0.0 | 0.00 | 0.00 | 0.00 | 52 | 1013.7 |
| 20260504030243 | 44 | 4 | 0.0 | 0.0 | 0.00 | 0.00 | 0.00 | 52 | 1013.7 |
| 20260504025739 | 44 | 5 | 0.0 | 0.0 | 0.00 | 0.00 | 0.00 | 51 | 1013.6 |
| 20260504025236 | 44 | 5 | 0.0 | 0.0 | 0.00 | 0.00 | 0.00 | 52 | 1013.8 |
| 20260504024733 | 44 | 5 | 0.0 | 0.0 | 0.00 | 0.00 | 0.00 | 52 | 1013.5 |
| 20260504024229 | 44 | 5 | 0.0 | 0.0 | 0.00 | 0.00 | 0.00 | 53 | 1013.7 |
| 20260504023726 | 44 | 5 | 0.0 | 1.0 | 0.00 | 0.00 | 0.00 | 55 | 1013.8 |
| 20260504023222 | 44 | 5 | 0.0 | 0.0 | 0.00 | 0.00 | 0.00 | 52 | 1013.7 |
| 20260504022718 | 44 | 5 | 0.0 | 0.0 | 0.00 | 0.00 | 0.00 | 51 | 1013.8 |
| 20260504022214 | 45 | 5 | 0.0 | 0.0 | 0.00 | 0.00 | 0.00 | 55 | 1013.6 |
| 20260504021712 | 45 | 5 | 0.0 | 0.0 | 0.00 | 0.00 | 0.00 | 52 | 1013.5 |
| 20260504021208 | 45 | 5 | 0.0 | 0.0 | 0.00 | 0.00 | 0.00 | 51 | 1013.6 |
| 20260504020705 | 45 | 5 | 0.0 | 0.0 | 0.00 | 0.00 | 0.00 | 51 | 1013.6 |
| 20260504020201 | 45 | 5 | 0.0 | 0.0 | 0.00 | 0.00 | 0.00 | 51 | 1013.5 |
| 20260504015658 | 45 | 5 | 0.0 | 0.0 | 0.00 | 0.00 | 0.00 | 50 | 1013.4 |
| 20260504015154 | 45 | 5 | 0.0 | 0.0 | 0.00 | 0.00 | 0.00 | 49 | 1013.5 |
| 20260504014650 | 45 | 5 | 0.0 | 0.0 | 0.00 | 0.00 | 0.00 | 52 | 1013.4 |
| 20260504014147 | 46 | 5 | 0.0 | 0.0 | 0.00 | 0.00 | 0.00 | 50 | 1013.5 |
| 20260504013645 | 46 | 5 | 0.0 | 0.0 | 0.00 | 0.00 | 0.00 | 49 | 1013.4 |
| 20260504013141 | 46 | 5 | 0.0 | 0.0 | 0.00 | 0.00 | 0.00 | 50 | 1013.3 |
| 20260504012639 | 45 | 5 | 0.0 | 0.0 | 0.00 | 0.00 | 0.00 | 48 | 1013.5 |
| 20260504012137 | 45 | 5 | 0.0 | 0.0 | 0.00 | 0.00 | 0.00 | 51 | 1013.3 |
| 20260504011633 | 45 | 5 | 0.0 | 0.0 | 0.00 | 0.00 | 0.00 | 50 | 1013.1 |
| 20260504011130 | 45 | 5 | 0.0 | 0.0 | 0.00 | 0.00 | 0.00 | 49 | 1013.1 |
| 20260504010625 | 45 | 5 | 0.0 | 0.0 | 0.00 | 0.00 | 0.00 | 51 | 1012.8 |
| 20260504010116 | 45 | 5 | 0.0 | 0.0 | 0.00 | 0.00 | 0.00 | 50 | 1012.9 |
| 20260504005614 | 45 | 5 | 0.0 | 0.0 | 0.00 | 0.00 | 0.00 | 51 | 1012.8 |
| 20260504005110 | 45 | 5 | 0.0 | 0.0 | 0.00 | 0.00 | 0.00 | 52 | 1012.8 |
| 20260504004609 | 45 | 5 | 0.0 | 0.0 | 0.00 | 0.00 | 0.00 | 52 | 1012.7 |
| 20260504004105 | 45 | 5 | 0.0 | 0.0 | 0.00 | 0.00 | 0.00 | 52 | 1012.6 |
| 20260504003601 | 46 | 5 | 0.0 | 0.0 | 0.00 | 0.00 | 0.00 | 52 | 1012.5 |
| 20260504003058 | 46 | 5 | 0.0 | 0.0 | 0.00 | 0.00 | 0.00 | 51 | 1012.6 |
| 20260504002555 | 46 | 5 | 0.0 | 0.0 | 0.00 | 0.00 | 0.00 | 50 | 1012.4 |
| 20260504002053 | 46 | 5 | 0.0 | 0.0 | 0.00 | 0.00 | 0.00 | 50 | 1012.4 |
| 20260504001550 | 47 | 6 | 0.0 | 1.0 | 0.00 | 0.00 | 0.00 | 49 | 1012.4 |
| 20260504001046 | 47 | 5 | 0.0 | 0.0 | 0.00 | 0.00 | 0.00 | 47 | 1012.3 |
| 20260504000543 | 48 | 4 | 0.0 | 0.0 | 0.00 | 0.00 | 0.00 | 46 | 1012.1 |
| 20260504000041 | 48 | 4 | 0.0 | 0.0 | 0.00 | 0.00 | 0.00 | 46 | 1012.2 |
| 20260503235539 | 48 | 4 | 0.0 | 0.0 | 0.00 | 0.00 | 0.00 | 44 | 1012.0 |
| 20260503235036 | 49 | 4 | 0.0 | 1.0 | 0.00 | 0.00 | 0.00 | 42 | 1011.9 |
| 20260503234533 | 49 | 5 | 0.0 | 0.0 | 0.00 | 0.00 | 0.00 | 42 | 1011.8 |
| 20260503234031 | 50 | 5 | 0.0 | 0.0 | 0.00 | 0.00 | 0.00 | 43 | 1012.0 |
| 20260503233527 | 50 | 336 | 0.0 | 1.0 | 0.00 | 0.00 | 0.00 | 41 | 1012.1 |
| 20260503233023 | 51 | 330 | 1.0 | 1.0 | 0.00 | 0.00 | 0.00 | 41 | 1011.9 |
| 20260503232521 | 51 | 348 | 0.0 | 1.0 | 0.00 | 0.00 | 0.00 | 40 | 1011.9 |
| 20260503232018 | 51 | 331 | 0.0 | 0.0 | 0.00 | 0.00 | 0.00 | 40 | 1012.0 |
| 20260503231516 | 51 | 343 | 0.0 | 1.0 | 0.00 | 0.00 | 0.00 | 40 | 1011.9 |
| 20260503231012 | 52 | 2 | 1.0 | 2.0 | 0.00 | 0.00 | 0.00 | 40 | 1012.0 |
| 20260503230509 | 52 | 353 | 1.0 | 2.0 | 0.00 | 0.00 | 0.00 | 39 | 1011.8 |
| 20260503230007 | 52 | 348 | 0.0 | 1.0 | 0.00 | 0.00 | 0.00 | 38 | 1011.9 |
| 20260503225503 | 52 | 268 | 2.0 | 2.0 | 0.00 | 0.00 | 0.00 | 37 | 1011.9 |
| 20260503224958 | 52 | 298 | 1.0 | 2.0 | 0.00 | 0.00 | 0.00 | 37 | 1011.7 |
| 20260503224455 | 52 | 9 | 1.0 | 3.0 | 0.00 | 0.00 | 0.00 | 37 | 1011.7 |
| 20260503223953 | 52 | 24 | 2.0 | 3.0 | 0.00 | 0.00 | 0.00 | 36 | 1011.6 |
| 20260503223450 | 52 | 328 | 0.0 | 3.0 | 0.00 | 0.00 | 0.00 | 37 | 1011.7 |
| 20260503222946 | 53 | 356 | 2.0 | 3.0 | 0.00 | 0.00 | 0.00 | 37 | 1011.7 |
| 20260503222444 | 52 | 316 | 1.0 | 3.0 | 0.00 | 0.00 | 0.00 | 38 | 1011.5 |
| 20260503221942 | 53 | 3 | 3.0 | 6.0 | 0.00 | 0.00 | 0.00 | 37 | 1011.5 |
| 20260503221440 | 53 | 14 | 2.0 | 6.0 | 0.00 | 0.00 | 0.00 | 37 | 1011.5 |
| 20260503220937 | 53 | 330 | 1.0 | 2.0 | 0.00 | 0.00 | 0.00 | 37 | 1011.4 |
| 20260503220433 | 53 | 308 | 2.0 | 3.0 | 0.00 | 0.00 | 0.00 | 37 | 1011.5 |
| 20260503215930 | 53 | 331 | 0.0 | 2.0 | 0.00 | 0.00 | 0.00 | 37 | 1011.4 |
| 20260503215427 | 53 | 15 | 4.0 | 6.0 | 0.00 | 0.00 | 0.00 | 37 | 1011.5 |
| 20260503214925 | 53 | 176 | 3.0 | 3.0 | 0.00 | 0.00 | 0.00 | 37 | 1011.5 |
| 20260503214422 | 54 | 298 | 2.0 | 6.0 | 0.00 | 0.00 | 0.00 | 37 | 1011.6 |
| 20260503213920 | 54 | 350 | 2.0 | 5.0 | 0.00 | 0.00 | 0.00 | 36 | 1011.4 |
| 20260503213417 | 53 | 299 | 2.0 | 6.0 | 0.00 | 0.00 | 0.00 | 36 | 1011.2 |
| 20260503212914 | 54 | 0 | 2.0 | 6.0 | 0.00 | 0.00 | 0.00 | 37 | 1011.2 |
| 20260503212411 | 54 | 24 | 2.0 | 6.0 | 0.00 | 0.00 | 0.00 | 35 | 1011.4 |
| 20260503211909 | 53 | 344 | 3.0 | 6.0 | 0.00 | 0.00 | 0.00 | 35 | 1011.1 |
| 20260503211405 | 54 | 10 | 4.0 | 6.0 | 0.00 | 0.00 | 0.00 | 35 | 1011.2 |
| 20260503210900 | 55 | 18 | 1.0 | 5.0 | 0.00 | 0.00 | 0.00 | 34 | 1011.1 |
| 20260503210358 | 54 | 334 | 3.0 | 6.0 | 0.00 | 0.00 | 0.00 | 36 | 1011.2 |
| 20260503205852 | 54 | 4 | 1.0 | 5.0 | 0.00 | 0.00 | 0.00 | 36 | 1010.9 |